Content
SEND FEEDBACK

Daily
Averages
Monthly
Summary
United States of America

MCFARLAND, KANSAS


Home > North America > United States > Kansas
Elevation: 1030 feet     Latitude: 39 03N     Longitude: 096 14W

WEATHER
 
SELECT A DAY
Number of Records: 195,108;   Date Range: 1/1/95 - 4/23/14
 
SHARE

PRINT THIS DATA

[ ← Previous Day ]
WEATHER ALMANAC - FEBRUARY 5, 2013
[ Next Day → ]
[ °C ]   °F
Weather ElementAverageHighLow
Temperature39 °F61 °F (2:52 pm)21.9 °F (2:52 am)
Dewpoint26.3 °F30.9 °F (11:52 am)19 °F (2:52 am)
Humidity65.7 %89 % (2:52 am)31 % (2:52 pm)
Barometer30.02 in30.11 in (10:52 pm)29.93 in (2:52 am)
Wind Speed3.3 mph9.2 mph (1:52 pm)
Weather ElementAverage
Visibility8.7 mi
Wind DirectionESE (123.5 °)

Weather ElementTotal
Precipitation---
Heating Degree Days23.6 (Base 65)
Averaged from 23 records on February 5, 2013
WEATHER CONDITIONS BREAKOUT
WIND DIRECTION BREAKOUT
WEATHER BY HOUR - FEBRUARY 5, 2013
[ °C ]   °F
Local TimeTemperatureDewpointHumidityBarometerVisibilityWind DirectionWind SpeedGust SpeedPrecipitationEventsConditions
1:52 AM23.0 °F19.9 °F88 %29.94 in6.0 miCalmClear
2:52 AM21.9 °F19.0 °F89 %29.93 in5.0 miCalmClear
3:52 AM25.0 °F21.9 °F88 %29.93 in6.0 miCalmClear
4:52 AM27.0 °F23.0 °F85 %29.96 in8.0 miWSW (240°)3.5 mphClear
5:52 AM25.0 °F21.9 °F88 %29.95 in7.0 miSW (230°)4.6 mphClear
6:52 AM24.1 °F21.0 °F88 %29.96 in7.0 miSSW (210°)4.6 mphClear
7:52 AM27.0 °F23.0 °F85 %29.98 in5.0 miCalmClear
8:52 AM33.1 °F28.0 °F82 %30.01 in7.0 miWSW (240°)4.6 mphClear
9:52 AM39.0 °F30.0 °F70 %30.02 in10.0 miWSW (240°)6.9 mphClear
10:52 AM46.0 °F30.0 °F54 %30.04 in10.0 miWest (270°)3.5 mphClear
11:52 AM52.0 °F30.9 °F45 %30.04 in10.0 miWNW (300°)4.6 mphClear
12:52 PM57.0 °F30.0 °F36 %30.03 in10.0 miNNW (330°)5.8 mphClear
1:52 PM60.1 °F30.0 °F32 %30.02 in10.0 miNorth (360°)9.2 mphClear
2:52 PM61.0 °F30.0 °F31 %30.01 in10.0 miNorth (360°)6.9 mphClear
3:52 PM60.1 °F28.9 °F31 %30.02 in10.0 miVariable3.5 mphClear
4:52 PM57.2 °F30.2 °F36 %30.01 in10.0 miNNE (20°)8.1 mphClear
5:52 PM51.1 °F30.0 °F44 %30.04 in10.0 miNNE (20°)5.8 mphClear
6:52 PM45.0 °F28.0 °F52 %30.06 in10.0 miNNE (20°)4.6 mphClear
7:52 PM39.0 °F27.0 °F62 %30.08 in10.0 miCalmClear
8:52 PM33.8 °F26.6 °F75 %30.06 in10.0 miCalmClear
9:52 PM32.0 °F26.1 °F79 %30.09 in10.0 miCalmClear
10:52 PM30.0 °F25.0 °F82 %30.11 in10.0 miCalmClear
11:52 PM28.0 °F25.0 °F88 %30.10 in10.0 miCalmClear
Hourly data recorded from KMHK, located 24.20 miles away from McFarland, Kansas







STORIES FROM OUR PARTNERS